Location: La Chapelle
(48.3135°N, 1.3085°W)
Time: 23:17:44
(UTC+00:00)

H-2A R/B - Pass Details

Date: 03 March 2021
Orbit: 578 x 654 km, 98.5° (Epoch: 20 April)

Event Time Altitude Azimuth Distance (km) Brightness Sun altitude
Rises 18:30:41 0° 8° (N) 2,810 5.3 -7.1°
Reaches altitude 10° 18:32:56 10° 0° (N) 1,903 4.6 -7.5°
Maximum altitude 18:36:45 38° 292° (WNW) 888 3.6 -8.1°
Drops below altitude 10° 18:40:33 10° 224° (SW) 1,896 5.2 -8.8°
Sets 18:42:48 0° 216° (SW) 2,797 6.0 -9.1°
